Time,TemperatureF,DewpointF,PressureIn,WindDirection,WindDirectionDegrees,WindSpeedMPH,WindSpeedGustMPH,Humidity,HourlyPrecipIn,Conditions,Clouds,dailyrainin,SoftwareType,DateUTC
2013-02-03 00:00:00,27.7,18.1,28.88,West,265,3.4,4.7,64,-99.99,,,-99.99,WSDL version 420,2013-02-03 05:00:00,
2013-02-03 00:03:00,27.7,18.3,28.88,West,280,2.3,4.7,64,-99.99,,,-99.99,WSDL version 420,2013-02-03 05:03:00,
2013-02-03 00:04:00,27.7,18.3,28.88,WNW,290,2.3,4.7,64,-99.99,,,-99.99,WSDL version 420,2013-02-03 05:04:00,
2013-02-03 00:09:00,27.7,18.4,28.88,West,270,3.1,4.9,65,-99.99,,,-99.99,WSDL version 420,2013-02-03 05:09:00,
2013-02-03 00:15:00,27.7,18.6,28.88,West,265,2.3,4.9,65,-99.99,,,-99.99,WSDL version 420,2013-02-03 05:15:00,
2013-02-03 00:20:00,27.7,18.7,28.88,WNW,298,2.9,4.3,66,-99.99,,,-99.99,WSDL version 420,2013-02-03 05:20:00,
2013-02-03 00:25:00,27.7,18.9,28.88,West,268,2.4,4.3,66,-99.99,,,-99.99,WSDL version 420,2013-02-03 05:25:00,
2013-02-03 00:30:00,27.7,18.9,28.88,WNW,290,2.7,3.8,66,-99.99,,,-99.99,WSDL version 420,2013-02-03 05:30:00,
2013-02-03 00:35:00,27.7,18.9,28.88,WNW,301,1.4,3.8,66,-99.99,,,-99.99,WSDL version 420,2013-02-03 05:35:00,
2013-02-03 00:40:00,27.7,18.9,28.88,WNW,303,2.9,4.3,66,-99.99,,,-99.99,WSDL version 420,2013-02-03 05:40:00,
2013-02-03 00:45:00,27.7,18.9,28.88,West,281,2.3,4.3,66,-99.99,,,-99.99,WSDL version 420,2013-02-03 05:45:00,
2013-02-03 00:50:00,27.7,18.9,28.88,West,278,3.5,5.4,66,-99.99,,,-99.99,WSDL version 420,2013-02-03 05:50:00,
2013-02-03 00:55:00,27.7,18.9,28.88,West,264,2.2,5.4,66,-99.99,,,-99.99,WSDL version 420,2013-02-03 05:55:00,
2013-02-03 01:00:00,27.7,18.9,28.88,West,262,1.9,4.0,66,-99.99,,,-99.99,WSDL version 420,2013-02-03 06:00:00,
2013-02-03 01:05:00,27.6,18.7,28.88,West,278,0.0,2.9,65,-99.99,,,-99.99,WSDL version 420,2013-02-03 06:05:00,
2013-02-03 01:10:00,27.5,18.4,28.88,WNW,290,1.9,3.4,65,-99.99,,,-99.99,WSDL version 420,2013-02-03 06:10:00,
2013-02-03 01:15:00,27.7,18.7,28.88,WNW,284,3.0,4.9,66,-99.99,,,-99.99,WSDL version 420,2013-02-03 06:15:00,
2013-02-03 01:20:00,27.7,18.9,28.85,West,264,1.8,4.9,66,-99.99,,,-99.99,WSDL version 420,2013-02-03 06:20:00,
2013-02-03 01:25:00,27.7,18.9,28.85,WNW,290,1.7,3.4,66,-99.99,,,-99.99,WSDL version 420,2013-02-03 06:25:00,
2013-02-03 01:30:00,27.5,18.4,28.85,West,259,1.5,3.4,65,-99.99,,,-99.99,WSDL version 420,2013-02-03 06:30:00,
2013-02-03 01:35:00,27.5,18.4,28.85,West,270,1.8,3.8,65,-99.99,,,-99.99,WSDL version 420,2013-02-03 06:35:00,
2013-02-03 01:40:00,27.5,18.4,28.85,WNW,284,2.2,3.8,65,-99.99,,,-99.99,WSDL version 420,2013-02-03 06:40:00,
2013-02-03 01:45:00,27.5,18.4,28.85,West,273,0.1,3.8,65,-99.99,,,-99.99,WSDL version 420,2013-02-03 06:45:00,
2013-02-03 01:50:00,27.5,18.4,28.85,WNW,295,2.6,4.3,65,-99.99,,,-99.99,WSDL version 420,2013-02-03 06:50:00,
2013-02-03 01:55:00,27.5,18.4,28.85,WNW,293,2.0,4.3,65,-99.99,,,-99.99,WSDL version 420,2013-02-03 06:55:00,
2013-02-03 02:00:00,27.4,18.4,28.85,West,262,1.0,3.6,65,-99.99,,,-99.99,WSDL version 420,2013-02-03 07:00:00,
2013-02-03 02:05:00,27.4,18.3,28.85,NW,304,1.2,3.1,65,-99.99,,,-99.99,WSDL version 420,2013-02-03 07:05:00,
2013-02-03 02:10:00,27.3,18.3,28.85,WNW,285,1.6,3.8,65,-99.99,,,-99.99,WSDL version 420,2013-02-03 07:10:00,
2013-02-03 02:15:00,27.3,18.3,28.85,West,281,1.3,3.8,65,-99.99,,,-99.99,WSDL version 420,2013-02-03 07:15:00,
2013-02-03 02:20:00,27.2,18.1,28.85,West,280,1.4,3.1,64,-99.99,,,-99.99,WSDL version 420,2013-02-03 07:20:00,
2013-02-03 02:25:00,27.1,17.8,28.85,WNW,290,1.4,3.1,64,-99.99,,,-99.99,WSDL version 420,2013-02-03 07:25:00,
2013-02-03 02:30:00,27.1,17.8,28.85,WSW,256,2.5,4.0,64,-99.99,,,-99.99,WSDL version 420,2013-02-03 07:30:00,
2013-02-03 02:35:00,27.1,17.8,28.85,West,263,0.1,4.0,64,-99.99,,,-99.99,WSDL version 420,2013-02-03 07:35:00,
2013-02-03 02:40:00,27.1,17.8,28.85,West,278,1.4,2.7,64,-99.99,,,-99.99,WSDL version 420,2013-02-03 07:40:00,
2013-02-03 02:45:00,27.1,17.8,28.85,WNW,298,2.3,3.1,64,-99.99,,,-99.99,WSDL version 420,2013-02-03 07:45:00,
2013-02-03 02:50:00,27.1,17.8,28.85,West,270,0.4,3.4,64,-99.99,,,-99.99,WSDL version 420,2013-02-03 07:50:00,
2013-02-03 02:55:00,27.1,17.5,28.85,WSW,245,1.1,3.4,63,-99.99,,,-99.99,WSDL version 420,2013-02-03 07:55:00,
2013-02-03 03:00:00,27.1,17.4,28.85,West,268,1.7,3.6,63,-99.99,,,-99.99,WSDL version 420,2013-02-03 08:00:00,
2013-02-03 03:05:00,27.1,17.4,28.85,West,276,1.9,3.6,63,-99.99,,,-99.99,WSDL version 420,2013-02-03 08:05:00,
2013-02-03 03:10:00,27.1,17.4,28.85,West,280,0.6,2.9,63,-99.99,,,-99.99,WSDL version 420,2013-02-03 08:10:00,
2013-02-03 03:15:00,27.1,17.4,28.85,West,264,2.7,3.8,63,-99.99,,,-99.99,WSDL version 420,2013-02-03 08:15:00,
2013-02-03 03:20:00,27.1,17.4,28.82,WNW,298,2.0,3.8,63,-99.99,,,-99.99,WSDL version 420,2013-02-03 08:20:00,
2013-02-03 03:25:00,27.1,17.4,28.82,West,264,2.8,4.3,63,-99.99,,,-99.99,WSDL version 420,2013-02-03 08:25:00,
2013-02-03 03:30:00,27.1,17.4,28.82,WNW,303,2.6,4.3,63,-99.99,,,-99.99,WSDL version 420,2013-02-03 08:30:00,
2013-02-03 03:35:00,27.1,17.4,28.82,WNW,288,2.2,3.6,63,-99.99,,,-99.99,WSDL version 420,2013-02-03 08:35:00,
2013-02-03 03:40:00,27.1,17.4,28.82,West,278,0.8,3.6,63,-99.99,,,-99.99,WSDL version 420,2013-02-03 08:40:00,
2013-02-03 03:45:00,27.1,17.4,28.82,West,276,0.2,3.4,63,-99.99,,,-99.99,WSDL version 420,2013-02-03 08:45:00,
2013-02-03 03:50:00,27.0,17.3,28.82,WNW,290,0.0,2.5,63,-99.99,,,-99.99,WSDL version 420,2013-02-03 08:50:00,
2013-02-03 03:55:00,27.0,17.3,28.82,WNW,293,0.0,2.5,63,-99.99,,,-99.99,WSDL version 420,2013-02-03 08:55:00,
2013-02-03 04:00:00,27.0,16.9,28.82,West,264,0.0,2.5,62,-99.99,,,-99.99,WSDL version 420,2013-02-03 09:00:00,
2013-02-03 04:05:00,27.0,16.9,28.82,North,353,0.6,2.7,62,-99.99,,,-99.99,WSDL version 420,2013-02-03 09:05:00,
2013-02-03 04:10:00,27.0,16.9,28.82,East,90,0.0,2.7,62,-99.99,,,-99.99,WSDL version 420,2013-02-03 09:10:00,
2013-02-03 04:15:00,26.8,16.8,28.82,SSW,208,0.0,1.3,62,-99.99,,,-99.99,WSDL version 420,2013-02-03 09:15:00,
2013-02-03 04:20:00,26.8,16.8,28.82,NW,318,1.9,3.1,62,-99.99,,,-99.99,WSDL version 420,2013-02-03 09:20:00,
2013-02-03 04:25:00,26.8,16.8,28.82,NW,304,0.0,3.1,62,-99.99,,,-99.99,WSDL version 420,2013-02-03 09:25:00,
2013-02-03 04:30:00,26.8,16.8,28.82,NW,310,0.6,2.5,62,-99.99,,,-99.99,WSDL version 420,2013-02-03 09:30:00,
2013-02-03 04:35:00,26.9,17.0,28.82,WNW,284,0.4,3.1,63,-99.99,,,-99.99,WSDL version 420,2013-02-03 09:35:00,
2013-02-03 04:40:00,26.8,17.0,28.82,WSW,248,0.1,3.1,62,-99.99,,,-99.99,WSDL version 420,2013-02-03 09:40:00,
2013-02-03 04:45:00,26.8,16.8,28.82,West,261,0.2,2.0,63,-99.99,,,-99.99,WSDL version 420,2013-02-03 09:45:00,
2013-02-03 04:50:00,26.8,17.1,28.82,WNW,284,2.0,3.8,63,-99.99,,,-99.99,WSDL version 420,2013-02-03 09:50:00,
2013-02-03 04:55:00,26.8,17.2,28.82,West,263,2.5,4.3,64,-99.99,,,-99.99,WSDL version 420,2013-02-03 09:55:00,
2013-02-03 05:00:00,26.9,17.5,28.82,WNW,283,1.4,4.3,64,-99.99,,,-99.99,WSDL version 420,2013-02-03 10:00:00,
2013-02-03 05:05:00,26.8,17.4,28.82,West,267,2.5,3.8,64,-99.99,,,-99.99,WSDL version 420,2013-02-03 10:05:00,
2013-02-03 05:10:00,26.9,17.5,28.82,WNW,300,3.3,4.9,64,-99.99,,,-99.99,WSDL version 420,2013-02-03 10:10:00,
2013-02-03 05:15:00,26.9,17.3,28.82,West,281,2.5,4.9,63,-99.99,,,-99.99,WSDL version 420,2013-02-03 10:15:00,
2013-02-03 05:20:00,26.8,16.9,28.79,NW,305,0.6,3.6,62,-99.99,,,-99.99,WSDL version 420,2013-02-03 10:20:00,
2013-02-03 05:25:00,26.8,16.7,28.79,WNW,293,3.4,4.3,61,-99.99,,,-99.99,WSDL version 420,2013-02-03 10:25:00,
2013-02-03 05:30:00,26.8,16.0,28.79,WNW,288,2.8,4.9,59,-99.99,,,-99.99,WSDL version 420,2013-02-03 10:30:00,
2013-02-03 05:35:00,26.7,15.3,28.79,NW,308,2.6,4.9,58,-99.99,,,-99.99,WSDL version 420,2013-02-03 10:35:00,
2013-02-03 05:40:00,26.6,14.9,28.79,WSW,253,1.2,4.3,57,-99.99,,,-99.99,WSDL version 420,2013-02-03 10:40:00,
2013-02-03 05:45:00,26.6,14.6,28.79,WNW,285,1.3,4.0,56,-99.99,,,-99.99,WSDL version 420,2013-02-03 10:45:00,
2013-02-03 05:51:00,26.4,14.1,28.79,West,275,2.6,4.3,55,-99.99,,,-99.99,WSDL version 420,2013-02-03 10:51:00,
2013-02-03 05:56:00,26.4,14.0,28.79,West,273,1.9,4.3,55,-99.99,,,-99.99,WSDL version 420,2013-02-03 10:56:00,
2013-02-03 06:01:00,26.4,13.8,28.79,NW,304,2.6,3.8,54,-99.99,,,-99.99,WSDL version 420,2013-02-03 11:01:00,
2013-02-03 06:06:00,26.3,13.5,28.79,WNW,300,0.4,3.8,54,-99.99,,,-99.99,WSDL version 420,2013-02-03 11:06:00,
2013-02-03 06:11:00,26.2,13.4,28.79,WNW,287,2.6,3.6,54,-99.99,,,-99.99,WSDL version 420,2013-02-03 11:11:00,
2013-02-03 06:16:00,26.3,13.5,28.79,WNW,295,1.3,3.6,54,-99.99,,,-99.99,WSDL version 420,2013-02-03 11:16:00,
2013-02-03 06:21:00,26.2,13.4,28.79,West,273,0.3,2.9,54,-99.99,,,-99.99,WSDL version 420,2013-02-03 11:21:00,
2013-02-03 06:26:00,26.1,13.3,28.79,West,275,1.7,3.1,54,-99.99,,,-99.99,WSDL version 420,2013-02-03 11:26:00,
2013-02-03 06:31:00,26.2,13.5,28.79,West,273,2.1,3.8,55,-99.99,,,-99.99,WSDL version 420,2013-02-03 11:31:00,
2013-02-03 06:36:00,26.2,13.6,28.79,West,273,0.5,3.8,54,-99.99,,,-99.99,WSDL version 420,2013-02-03 11:36:00,
2013-02-03 06:41:00,26.1,13.3,28.79,West,280,1.5,3.4,54,-99.99,,,-99.99,WSDL version 420,2013-02-03 11:41:00,
2013-02-03 06:46:00,26.1,13.3,28.79,West,262,2.0,4.0,54,-99.99,,,-99.99,WSDL version 420,2013-02-03 11:46:00,
2013-02-03 06:51:00,26.1,13.3,28.79,WNW,285,0.4,4.0,54,-99.99,,,-99.99,WSDL version 420,2013-02-03 11:51:00,
2013-02-03 06:56:00,26.0,13.2,28.79,West,267,1.9,3.1,54,-99.99,,,-99.99,WSDL version 420,2013-02-03 11:56:00,
2013-02-03 07:01:00,26.0,13.2,28.79,WSW,248,0.9,3.1,54,-99.99,,,-99.99,WSDL version 420,2013-02-03 12:01:00,
2013-02-03 07:06:00,25.9,13.1,28.79,West,268,0.3,2.9,54,-99.99,,,-99.99,WSDL version 420,2013-02-03 12:06:00,
2013-02-03 07:11:00,25.9,13.1,28.79,West,273,1.0,2.9,54,-99.99,,,-99.99,WSDL version 420,2013-02-03 12:11:00,
2013-02-03 07:16:00,25.8,13.0,28.79,NNW,340,0.0,2.7,54,-99.99,,,-99.99,WSDL version 420,2013-02-03 12:16:00,
2013-02-03 07:21:00,25.8,13.3,28.79,SSW,203,1.3,2.9,55,-99.99,,,-99.99,WSDL version 420,2013-02-03 12:21:00,
2013-02-03 07:26:00,25.8,13.4,28.79,SSW,203,0.0,2.9,55,-99.99,,,-99.99,WSDL version 420,2013-02-03 12:26:00,
2013-02-03 07:31:00,25.7,13.3,28.79,SSW,203,0.0,0.9,55,-99.99,,,-99.99,WSDL version 420,2013-02-03 12:31:00,
2013-02-03 07:36:00,25.7,13.4,28.79,SE,135,0.0,1.1,56,-99.99,,,-99.99,WSDL version 420,2013-02-03 12:36:00,
2013-02-03 07:41:00,25.8,13.7,28.79,SSE,158,0.5,1.6,56,-99.99,,,-99.99,WSDL version 420,2013-02-03 12:41:00,
2013-02-03 07:46:00,25.9,13.8,28.79,WNW,284,1.4,4.3,56,-99.99,,,-99.99,WSDL version 420,2013-02-03 12:46:00,
2013-02-03 07:51:00,26.1,14.0,28.79,WSW,240,1.0,4.3,56,-99.99,,,-99.99,WSDL version 420,2013-02-03 12:51:00,
2013-02-03 07:56:00,26.1,14.0,28.79,West,276,0.6,2.9,56,-99.99,,,-99.99,WSDL version 420,2013-02-03 12:56:00,
2013-02-03 08:01:00,26.2,14.4,28.79,WNW,303,3.4,7.2,57,-99.99,,,-99.99,WSDL version 420,2013-02-03 13:01:00,
2013-02-03 08:06:00,26.4,14.7,28.82,West,270,0.0,7.2,57,-99.99,,,-99.99,WSDL version 420,2013-02-03 13:06:00,
2013-02-03 08:11:00,26.4,14.6,28.82,WSW,255,0.0,2.7,56,-99.99,,,-99.99,WSDL version 420,2013-02-03 13:11:00,
2013-02-03 08:16:00,26.4,14.3,28.82,South,173,1.8,4.9,56,-99.99,,,-99.99,WSDL version 420,2013-02-03 13:16:00,
2013-02-03 08:21:00,26.6,14.5,28.79,WNW,284,0.6,4.9,56,-99.99,,,-99.99,WSDL version 420,2013-02-03 13:21:00,
2013-02-03 08:26:00,26.6,14.5,28.79,West,265,1.5,4.0,56,-99.99,,,-99.99,WSDL version 420,2013-02-03 13:26:00,
2013-02-03 08:31:00,26.7,14.4,28.79,WSW,239,2.4,6.0,55,-99.99,,,-99.99,WSDL version 420,2013-02-03 13:31:00,
2013-02-03 08:36:00,26.8,14.3,28.82,WNW,293,2.2,6.0,55,-99.99,,,-99.99,WSDL version 420,2013-02-03 13:36:00,
2013-02-03 08:41:00,26.9,14.4,28.82,NW,308,2.8,5.6,55,-99.99,,,-99.99,WSDL version 420,2013-02-03 13:41:00,
2013-02-03 08:46:00,27.0,14.5,28.82,West,263,1.2,5.6,55,-99.99,,,-99.99,WSDL version 420,2013-02-03 13:46:00,
2013-02-03 08:51:00,27.2,14.7,28.82,WNW,298,3.1,4.0,55,-99.99,,,-99.99,WSDL version 420,2013-02-03 13:51:00,
2013-02-03 08:56:00,27.4,14.5,28.82,West,267,3.0,5.8,54,-99.99,,,-99.99,WSDL version 420,2013-02-03 13:56:00,
2013-02-03 09:01:00,27.9,15.0,28.82,WNW,283,2.5,6.5,54,-99.99,,,-99.99,WSDL version 420,2013-02-03 14:01:00,
2013-02-03 09:06:00,28.7,15.5,28.82,WNW,303,2.2,6.5,53,-99.99,,,-99.99,WSDL version 420,2013-02-03 14:06:00,
2013-02-03 09:11:00,29.5,16.0,28.82,WNW,285,2.6,3.6,52,-99.99,,,-99.99,WSDL version 420,2013-02-03 14:11:00,
2013-02-03 09:16:00,30.2,16.1,28.82,West,278,2.7,4.9,51,-99.99,,,-99.99,WSDL version 420,2013-02-03 14:16:00,
2013-02-03 09:21:00,30.3,14.5,28.82,West,280,3.6,6.0,45,-99.99,,,-99.99,WSDL version 420,2013-02-03 14:21:00,
2013-02-03 09:26:00,29.7,12.7,28.82,West,278,3.4,6.0,44,-99.99,,,-99.99,WSDL version 420,2013-02-03 14:26:00,
2013-02-03 09:31:00,29.3,12.4,28.82,WNW,290,2.7,5.4,45,-99.99,,,-99.99,WSDL version 420,2013-02-03 14:31:00,
2013-02-03 09:36:00,29.3,12.8,28.82,West,278,3.2,5.4,46,-99.99,,,-99.99,WSDL version 420,2013-02-03 14:36:00,
2013-02-03 09:41:00,30.7,14.9,28.82,WNW,301,1.9,4.9,48,-99.99,,,-99.99,WSDL version 420,2013-02-03 14:41:00,
2013-02-03 09:46:00,32.5,14.1,28.82,WNW,298,2.4,4.9,44,-99.99,,,-99.99,WSDL version 420,2013-02-03 14:46:00,
2013-02-03 09:51:00,32.5,12.4,28.79,West,267,3.6,6.3,41,-99.99,,,-99.99,WSDL version 420,2013-02-03 14:51:00,
2013-02-03 09:56:00,31.7,13.0,28.79,WNW,295,3.1,6.3,41,-99.99,,,-99.99,WSDL version 420,2013-02-03 14:56:00,
2013-02-03 10:01:00,31.6,12.9,28.79,WNW,283,1.6,6.5,41,-99.99,,,-99.99,WSDL version 420,2013-02-03 15:01:00,
2013-02-03 10:06:00,32.4,11.3,28.79,WNW,284,1.7,6.5,41,-99.99,,,-99.99,WSDL version 420,2013-02-03 15:06:00,
2013-02-03 10:11:00,33.2,12.0,28.79,WNW,284,1.5,4.0,41,-99.99,,,-99.99,WSDL version 420,2013-02-03 15:11:00,
2013-02-03 10:16:00,33.7,12.1,28.79,NW,315,1.7,3.8,40,-99.99,,,-99.99,WSDL version 420,2013-02-03 15:16:00,
2013-02-03 10:21:00,33.7,10.2,28.79,WNW,301,3.1,4.3,36,-99.99,,,-99.99,WSDL version 420,2013-02-03 15:21:00,
2013-02-03 10:26:00,32.9,9.0,28.79,WNW,290,2.9,5.6,37,-99.99,,,-99.99,WSDL version 420,2013-02-03 15:26:00,
2013-02-03 10:31:00,32.4,9.1,28.79,WNW,295,2.6,5.8,38,-99.99,,,-99.99,WSDL version 420,2013-02-03 15:31:00,
2013-02-03 10:36:00,32.3,10.6,28.79,WNW,293,4.5,7.2,38,-99.99,,,-99.99,WSDL version 420,2013-02-03 15:36:00,
2013-02-03 10:41:00,32.2,11.0,28.79,WNW,301,3.4,7.2,40,-99.99,,,-99.99,WSDL version 420,2013-02-03 15:41:00,
2013-02-03 10:46:00,32.8,11.1,28.79,WNW,298,2.2,6.0,40,-99.99,,,-99.99,WSDL version 420,2013-02-03 15:46:00,
2013-02-03 10:51:00,33.1,11.4,28.79,WNW,295,2.3,5.6,40,-99.99,,,-99.99,WSDL version 420,2013-02-03 15:51:00,
2013-02-03 10:56:00,33.3,11.6,28.79,NW,315,2.1,4.3,40,-99.99,,,-99.99,WSDL version 420,2013-02-03 15:56:00,
2013-02-03 11:01:00,33.5,11.2,28.79,WNW,287,3.2,4.9,38,-99.99,,,-99.99,WSDL version 420,2013-02-03 16:01:00,
2013-02-03 11:06:00,33.8,11.5,28.79,WNW,295,2.2,4.9,40,-99.99,,,-99.99,WSDL version 420,2013-02-03 16:06:00,
2013-02-03 11:11:00,34.2,11.9,28.79,NW,318,1.7,3.8,40,-99.99,,,-99.99,WSDL version 420,2013-02-03 16:11:00,
2013-02-03 11:16:00,34.7,11.3,28.79,WNW,296,1.6,4.3,37,-99.99,,,-99.99,WSDL version 420,2013-02-03 16:16:00,
2013-02-03 11:21:00,35.4,11.3,28.79,WNW,300,2.4,4.3,36,-99.99,,,-99.99,WSDL version 420,2013-02-03 16:21:00,
2013-02-03 11:26:00,34.9,9.4,28.79,WNW,301,3.7,5.6,33,-99.99,,,-99.99,WSDL version 420,2013-02-03 16:26:00,
2013-02-03 11:31:00,34.7,8.7,28.79,NW,305,3.5,5.8,33,-99.99,,,-99.99,WSDL version 420,2013-02-03 16:31:00,
2013-02-03 11:36:00,34.4,8.4,28.79,NW,312,3.7,5.8,33,-99.99,,,-99.99,WSDL version 420,2013-02-03 16:36:00,
2013-02-03 11:41:00,33.5,7.9,28.79,NW,313,4.4,6.7,34,-99.99,,,-99.99,WSDL version 420,2013-02-03 16:41:00,
2013-02-03 11:46:00,33.4,8.4,28.79,WNW,293,2.9,6.7,35,-99.99,,,-99.99,WSDL version 420,2013-02-03 16:46:00,
2013-02-03 11:51:00,33.4,9.2,28.79,NW,305,2.3,5.6,36,-99.99,,,-99.99,WSDL version 420,2013-02-03 16:51:00,
2013-02-03 11:56:00,33.5,9.7,28.79,WNW,303,2.9,5.4,36,-99.99,,,-99.99,WSDL version 420,2013-02-03 16:56:00,
2013-02-03 12:01:00,33.3,9.3,28.79,WNW,301,2.8,4.9,37,-99.99,,,-99.99,WSDL version 420,2013-02-03 17:01:00,
2013-02-03 12:06:00,33.6,9.4,28.79,NW,305,4.3,6.3,35,-99.99,,,-99.99,WSDL version 420,2013-02-03 17:06:00,
2013-02-03 12:11:00,33.2,8.4,28.79,NW,307,3.8,7.6,35,-99.99,,,-99.99,WSDL version 420,2013-02-03 17:11:00,
2013-02-03 12:16:00,32.4,8.4,28.79,West,275,5.1,7.8,35,-99.99,,,-99.99,WSDL version 420,2013-02-03 17:16:00,
2013-02-03 12:21:00,31.9,10.8,28.76,West,270,4.2,7.8,38,-99.99,,,-99.99,WSDL version 420,2013-02-03 17:21:00,
2013-02-03 12:26:00,31.6,12.3,28.76,West,281,3.2,7.4,40,-99.99,,,-99.99,WSDL version 420,2013-02-03 17:26:00,
2013-02-03 12:31:00,31.6,12.8,28.76,NW,305,2.9,6.5,41,-99.99,,,-99.99,WSDL version 420,2013-02-03 17:31:00,
2013-02-03 12:36:00,32.2,12.3,28.76,NW,304,3.9,6.5,41,-99.99,,,-99.99,WSDL version 420,2013-02-03 17:36:00,
2013-02-03 12:41:00,32.9,12.1,28.76,West,280,2.8,6.3,42,-99.99,,,-99.99,WSDL version 420,2013-02-03 17:41:00,
2013-02-03 12:46:00,33.6,12.5,28.76,WNW,295,2.8,5.4,41,-99.99,,,-99.99,WSDL version 420,2013-02-03 17:46:00,
2013-02-03 12:51:00,33.7,11.9,28.76,West,278,3.4,5.6,40,-99.99,,,-99.99,WSDL version 420,2013-02-03 17:51:00,
2013-02-03 12:56:00,33.7,11.3,28.76,West,280,4.1,6.5,38,-99.99,,,-99.99,WSDL version 420,2013-02-03 17:56:00,
2013-02-03 13:01:00,33.5,10.6,28.76,West,273,4.1,7.4,39,-99.99,,,-99.99,WSDL version 420,2013-02-03 18:01:00,
2013-02-03 13:06:00,34.2,10.9,28.76,West,260,3.2,7.4,37,-99.99,,,-99.99,WSDL version 420,2013-02-03 18:06:00,
2013-02-03 13:11:00,35.2,10.1,28.76,WNW,284,4.0,8.5,34,-99.99,,,-99.99,WSDL version 420,2013-02-03 18:11:00,
2013-02-03 13:16:00,34.4,8.3,28.76,WNW,293,4.6,8.5,33,-99.99,,,-99.99,WSDL version 420,2013-02-03 18:16:00,
2013-02-03 13:21:00,34.3,8.2,28.76,WNW,295,3.4,8.1,33,-99.99,,,-99.99,WSDL version 420,2013-02-03 18:21:00,
2013-02-03 13:26:00,34.9,8.7,28.76,West,280,3.7,6.0,33,-99.99,,,-99.99,WSDL version 420,2013-02-03 18:26:00,
2013-02-03 13:31:00,34.8,8.5,28.76,West,263,3.6,6.3,33,-99.99,,,-99.99,WSDL version 420,2013-02-03 18:31:00,
2013-02-03 13:36:00,34.6,8.4,28.76,West,273,3.8,6.3,33,-99.99,,,-99.99,WSDL version 420,2013-02-03 18:36:00,
2013-02-03 13:41:00,34.8,9.1,28.76,WNW,288,2.4,6.3,34,-99.99,,,-99.99,WSDL version 420,2013-02-03 18:41:00,
2013-02-03 13:46:00,34.2,8.7,28.76,WNW,287,3.4,6.3,35,-99.99,,,-99.99,WSDL version 420,2013-02-03 18:46:00,
2013-02-03 13:51:00,34.3,9.7,28.76,NW,323,2.4,5.4,36,-99.99,,,-99.99,WSDL version 420,2013-02-03 18:51:00,
2013-02-03 13:56:00,33.4,9.6,28.76,North,357,3.4,4.9,37,-99.99,,,-99.99,WSDL version 420,2013-02-03 18:56:00,
2013-02-03 14:01:00,32.5,10.0,28.76,West,280,3.9,7.6,40,-99.99,,,-99.99,WSDL version 420,2013-02-03 19:01:00,
2013-02-03 14:06:00,33.3,12.1,28.76,NNW,335,1.3,7.6,41,-99.99,,,-99.99,WSDL version 420,2013-02-03 19:06:00,
2013-02-03 14:11:00,33.8,12.4,28.76,West,281,2.4,6.5,41,-99.99,,,-99.99,WSDL version 420,2013-02-03 19:11:00,
2013-02-03 14:16:00,33.0,11.8,28.76,WNW,288,4.0,6.5,41,-99.99,,,-99.99,WSDL version 420,2013-02-03 19:16:00,
2013-02-03 14:21:00,32.5,11.6,28.76,West,276,2.4,7.8,42,-99.99,,,-99.99,WSDL version 420,2013-02-03 19:21:00,
2013-02-03 14:26:00,32.7,11.9,28.76,WNW,298,5.4,9.4,41,-99.99,,,-99.99,WSDL version 420,2013-02-03 19:26:00,
2013-02-03 14:31:00,33.7,12.4,28.76,WNW,284,3.4,9.4,40,-99.99,,,-99.99,WSDL version 420,2013-02-03 19:31:00,
2013-02-03 14:36:00,34.5,10.8,28.76,WSW,253,5.2,9.2,35,-99.99,,,-99.99,WSDL version 420,2013-02-03 19:36:00,
2013-02-03 14:41:00,35.2,9.3,28.76,West,278,3.6,9.2,33,-99.99,,,-99.99,WSDL version 420,2013-02-03 19:41:00,
2013-02-03 14:46:00,35.3,8.1,28.76,WNW,298,5.1,7.4,31,-99.99,,,-99.99,WSDL version 420,2013-02-03 19:46:00,
2013-02-03 14:51:00,33.6,6.4,28.76,WNW,295,4.6,9.2,32,-99.99,,,-99.99,WSDL version 420,2013-02-03 19:51:00,
2013-02-03 14:56:00,33.2,7.3,28.76,WNW,301,6.7,12.1,34,-99.99,,,-99.99,WSDL version 420,2013-02-03 19:56:00,
2013-02-03 15:01:00,33.1,8.0,28.76,WNW,283,4.1,12.1,35,-99.99,,,-99.99,WSDL version 420,2013-02-03 20:01:00,
2013-02-03 15:06:00,31.9,11.2,28.76,West,281,2.7,6.3,40,-99.99,,,-99.99,WSDL version 420,2013-02-03 20:06:00,
2013-02-03 15:11:00,31.4,12.6,28.76,NNW,330,3.5,7.2,41,-99.99,,,-99.99,WSDL version 420,2013-02-03 20:11:00,
2013-02-03 15:16:00,31.0,12.5,28.76,NW,313,4.5,7.2,42,-99.99,,,-99.99,WSDL version 420,2013-02-03 20:16:00,
2013-02-03 15:21:00,31.1,12.8,28.76,WNW,287,3.8,8.7,42,-99.99,,,-99.99,WSDL version 420,2013-02-03 20:21:00,
2013-02-03 15:26:00,30.6,11.9,28.76,West,280,4.3,8.7,41,-99.99,,,-99.99,WSDL version 420,2013-02-03 20:26:00,
2013-02-03 15:31:00,30.4,11.9,28.76,WNW,298,4.2,7.4,41,-99.99,,,-99.99,WSDL version 420,2013-02-03 20:31:00,
2013-02-03 15:36:00,30.5,11.8,28.79,NW,305,3.0,5.8,41,-99.99,,,-99.99,WSDL version 420,2013-02-03 20:36:00,
2013-02-03 15:41:00,30.6,11.7,28.79,NNW,346,4.1,7.2,40,-99.99,,,-99.99,WSDL version 420,2013-02-03 20:41:00,
2013-02-03 15:46:00,30.5,11.4,28.79,West,280,4.9,8.5,40,-99.99,,,-99.99,WSDL version 420,2013-02-03 20:46:00,
2013-02-03 15:51:00,29.9,10.8,28.79,NW,310,5.1,8.7,40,-99.99,,,-99.99,WSDL version 420,2013-02-03 20:51:00,
2013-02-03 15:56:00,29.4,10.8,28.79,NW,304,3.6,8.7,41,-99.99,,,-99.99,WSDL version 420,2013-02-03 20:56:00,
2013-02-03 16:01:00,29.2,10.6,28.79,WNW,285,4.0,7.2,41,-99.99,,,-99.99,WSDL version 420,2013-02-03 21:01:00,
2013-02-03 16:06:00,29.0,10.5,28.79,WNW,295,4.5,8.1,41,-99.99,,,-99.99,WSDL version 420,2013-02-03 21:06:00,
2013-02-03 16:11:00,28.7,10.4,28.79,WNW,295,5.3,8.1,42,-99.99,,,-99.99,WSDL version 420,2013-02-03 21:11:00,
2013-02-03 16:16:00,28.4,10.3,28.79,West,281,5.4,8.7,42,-99.99,,,-99.99,WSDL version 420,2013-02-03 21:16:00,
2013-02-03 16:21:00,28.2,10.2,28.79,WNW,298,3.3,8.7,42,-99.99,,,-99.99,WSDL version 420,2013-02-03 21:21:00,
2013-02-03 16:26:00,28.2,10.7,28.79,WNW,283,3.0,6.0,43,-99.99,,,-99.99,WSDL version 420,2013-02-03 21:26:00,
2013-02-03 16:31:00,28.0,10.9,28.79,WNW,293,5.1,7.8,44,-99.99,,,-99.99,WSDL version 420,2013-02-03 21:31:00,
2013-02-03 16:36:00,27.8,11.0,28.82,WNW,295,3.4,7.8,45,-99.99,,,-99.99,WSDL version 420,2013-02-03 21:36:00,
2013-02-03 16:41:00,27.6,10.9,28.82,WNW,298,4.4,7.6,44,-99.99,,,-99.99,WSDL version 420,2013-02-03 21:41:00,
2013-02-03 16:46:00,27.2,9.9,28.82,WNW,295,4.0,9.8,43,-99.99,,,-99.99,WSDL version 420,2013-02-03 21:46:00,
2013-02-03 16:51:00,27.0,9.5,28.82,WNW,301,3.9,9.8,43,-99.99,,,-99.99,WSDL version 420,2013-02-03 21:51:00,
2013-02-03 16:56:00,27.0,9.2,28.82,West,275,4.2,10.5,42,-99.99,,,-99.99,WSDL version 420,2013-02-03 21:56:00,
2013-02-03 17:01:00,26.8,9.0,28.82,WNW,298,5.4,10.5,43,-99.99,,,-99.99,WSDL version 420,2013-02-03 22:01:00,
2013-02-03 17:06:00,26.6,9.2,28.82,North,354,2.1,8.5,43,-99.99,,,-99.99,WSDL version 420,2013-02-03 22:06:00,
2013-02-03 17:11:00,26.5,9.0,28.82,WNW,293,4.0,7.8,42,-99.99,,,-99.99,WSDL version 420,2013-02-03 22:11:00,
2013-02-03 17:16:00,26.2,8.4,28.82,NW,312,2.9,7.8,42,-99.99,,,-99.99,WSDL version 420,2013-02-03 22:16:00,
2013-02-03 17:21:00,26.1,8.1,28.85,WNW,295,5.4,12.3,41,-99.99,,,-99.99,WSDL version 420,2013-02-03 22:21:00,
2013-02-03 17:26:00,25.9,6.5,28.85,WNW,284,5.1,12.3,38,-99.99,,,-99.99,WSDL version 420,2013-02-03 22:26:00,
2013-02-03 17:31:00,25.6,5.9,28.85,NNW,340,5.5,11.9,38,-99.99,,,-99.99,WSDL version 420,2013-02-03 22:31:00,
2013-02-03 17:36:00,25.4,5.6,28.85,West,273,5.7,9.8,37,-99.99,,,-99.99,WSDL version 420,2013-02-03 22:36:00,
2013-02-03 17:41:00,25.3,5.6,28.85,WNW,298,4.7,9.8,38,-99.99,,,-99.99,WSDL version 420,2013-02-03 22:41:00,
2013-02-03 17:46:00,25.2,5.8,28.85,West,265,3.8,8.7,38,-99.99,,,-99.99,WSDL version 420,2013-02-03 22:46:00,
2013-02-03 17:51:00,25.2,5.5,28.85,NW,312,5.8,9.4,39,-99.99,,,-99.99,WSDL version 420,2013-02-03 22:51:00,
2013-02-03 17:56:00,25.0,5.5,28.85,WNW,293,4.5,9.4,39,-99.99,,,-99.99,WSDL version 420,2013-02-03 22:56:00,
2013-02-03 18:01:00,24.8,4.8,28.85,WNW,285,6.7,12.3,37,-99.99,,,-99.99,WSDL version 420,2013-02-03 23:01:00,
2013-02-03 18:06:00,24.8,4.7,28.85,WNW,285,5.4,12.3,37,-99.99,,,-99.99,WSDL version 420,2013-02-03 23:06:00,
2013-02-03 18:11:00,24.7,4.8,28.85,WNW,293,3.7,8.9,38,-99.99,,,-99.99,WSDL version 420,2013-02-03 23:11:00,
2013-02-03 18:16:00,24.5,4.9,28.85,NW,315,2.7,7.6,38,-99.99,,,-99.99,WSDL version 420,2013-02-03 23:16:00,
2013-02-03 18:21:00,24.4,4.8,28.85,NW,308,4.7,7.6,38,-99.99,,,-99.99,WSDL version 420,2013-02-03 23:21:00,
2013-02-03 18:26:00,24.4,4.9,28.85,WNW,301,3.1,7.6,39,-99.99,,,-99.99,WSDL version 420,2013-02-03 23:26:00,
2013-02-03 18:31:00,24.3,4.6,28.85,WNW,293,2.5,6.5,38,-99.99,,,-99.99,WSDL version 420,2013-02-03 23:31:00,
2013-02-03 18:36:00,24.2,4.6,28.88,NW,326,4.7,12.1,38,-99.99,,,-99.99,WSDL version 420,2013-02-03 23:36:00,
2013-02-03 18:41:00,24.1,4.0,28.88,West,276,4.6,12.1,37,-99.99,,,-99.99,WSDL version 420,2013-02-03 23:41:00,
2013-02-03 18:46:00,24.1,4.4,28.88,WNW,295,3.4,9.4,38,-99.99,,,-99.99,WSDL version 420,2013-02-03 23:46:00,
2013-02-03 18:51:00,23.9,4.3,28.88,WNW,295,3.1,9.4,38,-99.99,,,-99.99,WSDL version 420,2013-02-03 23:51:00,
2013-02-03 18:56:00,23.9,4.4,28.88,WNW,283,3.2,7.8,39,-99.99,,,-99.99,WSDL version 420,2013-02-03 23:56:00,
2013-02-03 19:01:00,23.8,4.7,28.88,NW,312,3.7,7.8,39,-99.99,,,-99.99,WSDL version 420,2013-02-04 00:01:00,
2013-02-03 19:06:00,23.7,4.9,28.91,WNW,295,2.2,5.8,40,-99.99,,,-99.99,WSDL version 420,2013-02-04 00:06:00,
2013-02-03 19:11:00,23.7,5.1,28.91,WNW,295,3.7,8.5,40,-99.99,,,-99.99,WSDL version 420,2013-02-04 00:11:00,
2013-02-03 19:16:00,23.7,5.1,28.91,NW,305,3.8,8.5,40,-99.99,,,-99.99,WSDL version 420,2013-02-04 00:16:00,
2013-02-03 19:21:00,23.7,5.0,28.91,WNW,298,4.4,7.8,40,-99.99,,,-99.99,WSDL version 420,2013-02-04 00:21:00,
2013-02-03 19:26:00,23.7,5.3,28.91,NW,307,5.2,8.7,40,-99.99,,,-99.99,WSDL version 420,2013-02-04 00:26:00,
2013-02-03 19:31:00,23.7,5.5,28.91,WNW,295,6.2,10.3,41,-99.99,,,-99.99,WSDL version 420,2013-02-04 00:31:00,
2013-02-03 19:36:00,23.6,5.9,28.91,West,281,3.2,10.3,42,-99.99,,,-99.99,WSDL version 420,2013-02-04 00:36:00,
2013-02-03 19:41:00,23.5,5.9,28.91,WNW,295,3.5,6.7,42,-99.99,,,-99.99,WSDL version 420,2013-02-04 00:41:00,
2013-02-03 19:46:00,23.5,5.9,28.91,NW,312,4.7,7.2,42,-99.99,,,-99.99,WSDL version 420,2013-02-04 00:46:00,
2013-02-03 19:51:00,23.4,6.3,28.91,NW,313,4.5,7.2,43,-99.99,,,-99.99,WSDL version 420,2013-02-04 00:51:00,
2013-02-03 19:56:00,23.4,6.2,28.91,West,280,5.4,8.7,43,-99.99,,,-99.99,WSDL version 420,2013-02-04 00:56:00,
2013-02-03 20:01:00,23.3,6.1,28.91,West,281,2.2,8.7,43,-99.99,,,-99.99,WSDL version 420,2013-02-04 01:01:00,
2013-02-03 20:06:00,23.2,5.7,28.91,WNW,283,4.1,8.7,42,-99.99,,,-99.99,WSDL version 420,2013-02-04 01:06:00,
2013-02-03 20:11:00,23.2,5.6,28.91,NW,315,3.5,8.7,42,-99.99,,,-99.99,WSDL version 420,2013-02-04 01:11:00,
2013-02-03 20:16:00,23.1,4.9,28.91,West,280,7.3,10.5,39,-99.99,,,-99.99,WSDL version 420,2013-02-04 01:16:00,
2013-02-03 20:21:00,23.0,3.4,28.94,WNW,301,6.5,15.4,37,-99.99,,,-99.99,WSDL version 420,2013-02-04 01:21:00,
2013-02-03 20:26:00,23.0,2.4,28.94,WNW,287,4.6,15.4,36,-99.99,,,-99.99,WSDL version 420,2013-02-04 01:26:00,
2013-02-03 20:31:00,22.9,2.3,28.94,WNW,285,3.4,8.7,36,-99.99,,,-99.99,WSDL version 420,2013-02-04 01:31:00,
2013-02-03 20:36:00,22.8,2.1,28.94,West,281,6.5,10.7,36,-99.99,,,-99.99,WSDL version 420,2013-02-04 01:36:00,
2013-02-03 20:41:00,22.8,1.8,28.94,WNW,300,5.0,11.0,35,-99.99,,,-99.99,WSDL version 420,2013-02-04 01:41:00,
2013-02-03 20:46:00,22.8,1.7,28.94,WNW,302,6.5,11.2,35,-99.99,,,-99.99,WSDL version 420,2013-02-04 01:46:00,
2013-02-03 20:51:00,22.6,1.1,28.94,WNW,290,4.5,11.2,35,-99.99,,,-99.99,WSDL version 420,2013-02-04 01:51:00,
2013-02-03 20:56:00,22.5,0.9,28.94,WNW,285,4.5,8.5,34,-99.99,,,-99.99,WSDL version 420,2013-02-04 01:56:00,
2013-02-03 21:01:00,22.4,0.7,28.94,WNW,295,4.2,11.0,34,-99.99,,,-99.99,WSDL version 420,2013-02-04 02:01:00,
2013-02-03 21:06:00,22.3,0.6,28.97,WNW,283,4.3,11.0,34,-99.99,,,-99.99,WSDL version 420,2013-02-04 02:06:00,
2013-02-03 21:11:00,22.0,0.7,28.97,WSW,242,1.8,10.1,35,-99.99,,,-99.99,WSDL version 420,2013-02-04 02:11:00,
2013-02-03 21:16:00,21.9,0.9,28.97,WNW,288,1.8,4.9,35,-99.99,,,-99.99,WSDL version 420,2013-02-04 02:16:00,
2013-02-03 21:21:00,21.9,0.9,28.97,WNW,295,2.7,7.4,35,-99.99,,,-99.99,WSDL version 420,2013-02-04 02:21:00,
2013-02-03 21:26:00,21.9,1.1,28.97,WNW,288,2.8,7.4,35,-99.99,,,-99.99,WSDL version 420,2013-02-04 02:26:00,
2013-02-03 21:31:00,21.9,0.8,28.97,WNW,298,5.9,9.8,34,-99.99,,,-99.99,WSDL version 420,2013-02-04 02:31:00,
2013-02-03 21:36:00,21.8,0.2,28.97,WNW,293,3.8,9.8,34,-99.99,,,-99.99,WSDL version 420,2013-02-04 02:36:00,
2013-02-03 21:41:00,21.7,0.2,28.97,West,278,4.1,7.8,34,-99.99,,,-99.99,WSDL version 420,2013-02-04 02:41:00,
2013-02-03 21:46:00,21.7,0.2,28.97,West,273,3.3,8.1,34,-99.99,,,-99.99,WSDL version 420,2013-02-04 02:46:00,
2013-02-03 21:51:00,21.7,0.1,28.97,West,280,2.5,8.1,34,-99.99,,,-99.99,WSDL version 420,2013-02-04 02:51:00,
2013-02-03 21:56:00,21.6,0.0,28.97,West,267,3.4,6.5,34,-99.99,,,-99.99,WSDL version 420,2013-02-04 02:56:00,
2013-02-03 22:01:00,21.6,0.0,28.97,WNW,293,2.2,6.5,34,-99.99,,,-99.99,WSDL version 420,2013-02-04 03:01:00,
2013-02-03 22:06:00,21.6,0.0,28.97,WNW,290,2.8,4.7,34,-99.99,,,-99.99,WSDL version 420,2013-02-04 03:06:00,
2013-02-03 22:11:00,21.6,0.0,28.97,WNW,295,3.4,5.6,34,-99.99,,,-99.99,WSDL version 420,2013-02-04 03:11:00,
2013-02-03 22:16:00,21.4,-0.1,28.97,NW,313,3.2,5.8,34,-99.99,,,-99.99,WSDL version 420,2013-02-04 03:16:00,
2013-02-03 22:21:00,21.4,-0.2,28.97,WNW,295,2.8,5.8,34,-99.99,,,-99.99,WSDL version 420,2013-02-04 03:21:00,
2013-02-03 22:26:00,21.4,-0.2,28.97,NW,308,2.6,5.6,34,-99.99,,,-99.99,WSDL version 420,2013-02-04 03:26:00,
2013-02-03 22:31:00,21.5,0.0,28.97,WNW,298,3.2,6.5,34,-99.99,,,-99.99,WSDL version 420,2013-02-04 03:31:00,
2013-02-03 22:36:00,21.5,-0.1,28.97,WNW,288,1.6,6.5,34,-99.99,,,-99.99,WSDL version 420,2013-02-04 03:36:00,
2013-02-03 22:41:00,21.4,-0.2,28.97,WNW,298,1.9,3.8,34,-99.99,,,-99.99,WSDL version 420,2013-02-04 03:41:00,
2013-02-03 22:46:00,21.4,-0.2,28.97,West,281,2.0,3.6,34,-99.99,,,-99.99,WSDL version 420,2013-02-04 03:46:00,
2013-02-03 22:51:00,21.4,-0.2,28.97,WSW,258,1.8,3.6,34,-99.99,,,-99.99,WSDL version 420,2013-02-04 03:51:00,
2013-02-03 22:56:00,21.4,-0.2,28.97,WSW,256,2.1,3.8,34,-99.99,,,-99.99,WSDL version 420,2013-02-04 03:56:00,
2013-02-03 23:01:00,21.5,-0.1,28.97,WNW,298,3.6,5.6,34,-99.99,,,-99.99,WSDL version 420,2013-02-04 04:01:00,
2013-02-03 23:06:00,21.6,0.0,28.97,West,276,4.5,7.8,34,-99.99,,,-99.99,WSDL version 420,2013-02-04 04:06:00,
2013-02-03 23:11:00,21.6,0.0,28.97,WNW,298,2.5,7.8,34,-99.99,,,-99.99,WSDL version 420,2013-02-04 04:11:00,
2013-02-03 23:16:00,21.6,0.0,28.97,WNW,283,3.6,6.0,34,-99.99,,,-99.99,WSDL version 420,2013-02-04 04:16:00,
2013-02-03 23:21:00,21.6,0.0,28.94,West,281,3.2,6.5,34,-99.99,,,-99.99,WSDL version 420,2013-02-04 04:21:00,
2013-02-03 23:26:00,21.6,0.1,28.94,NW,313,3.5,6.5,35,-99.99,,,-99.99,WSDL version 420,2013-02-04 04:26:00,
2013-02-03 23:31:00,21.6,0.0,28.94,NW,309,4.0,6.3,34,-99.99,,,-99.99,WSDL version 420,2013-02-04 04:31:00,
2013-02-03 23:36:00,21.5,0.4,28.94,NW,320,2.3,6.3,35,-99.99,,,-99.99,WSDL version 420,2013-02-04 04:36:00,
2013-02-03 23:41:00,21.4,0.4,28.94,WNW,298,3.9,9.6,35,-99.99,,,-99.99,WSDL version 420,2013-02-04 04:41:00,
2013-02-03 23:46:00,21.5,0.5,28.94,WNW,290,4.1,9.6,35,-99.99,,,-99.99,WSDL version 420,2013-02-04 04:46:00,
2013-02-03 23:51:00,21.6,0.5,28.97,WNW,300,3.5,6.3,35,-99.99,,,-99.99,WSDL version 420,2013-02-04 04:51:00,
2013-02-03 23:56:00,21.4,0.4,28.97,WNW,298,3.2,5.8,35,-99.99,,,-99.99,WSDL version 420,2013-02-04 04:56:00,